Bookmark and Share
Track history (hours):
 

Seavoyager

Last reported at 2014-Apr-22 08:33 UTC. Time now 2014-Apr-24 22:09 UTC.
Position N 50°07' W 002°09'.

Length 273 m; draft 9 m.

Type: Ship. MMSI: 256439000.

NotesDate/timePositionNaut miles runAvg speedWind from/ knotsBaromVisibWave heightAir tempDewpointWater temp
2014-Apr-22 08:33N 50°07' W 002°09'1815.9
2014-Apr-22 07:25N 50°12' W 001°42'1315.5
2014-Apr-22 06:33N 50°15' W 001°22'1414.2
2014-Apr-22 05:34N 50°19' W 001°01'1312.9
2014-Apr-22 04:34N 50°22' W 000°41'1212.0
2014-Apr-22 03:34N 50°26' W 000°23'1111.1
2014-Apr-22 02:34N 50°28' W 000°06'1210.3
2014-Apr-22 01:25N 50°31' E 000°11'910.0
2014-Apr-22 00:33N 50°34' E 000°24'1111.0
2014-Apr-21 23:33N 50°39' E 000°40'1312.8
2014-Apr-21 22:33N 50°46' E 000°56'1413.5
2014-Apr-21 21:33N 50°55' E 001°12'1313.2
2014-Apr-21 20:34N 51°04' E 001°27'1211.6
2014-Apr-21 19:34N 51°11' E 001°42'1111.0
2014-Apr-21 18:34N 51°20' E 001°53'1110.6
2014-Apr-21 17:34N 51°29' E 002°03'1211.0
2014-Apr-21 16:29N 51°37' E 002°16'1111.8
2014-Apr-21 15:33N 51°46' E 002°27'6713.4
2014-Apr-21 10:33N 52°48' E 003°09'1212.3
2014-Apr-21 09:33N 52°59' E 003°17'1211.8
2014-Apr-21 08:34N 53°10' E 003°23'1111.5
2014-Apr-21 07:34N 53°21' E 003°29'1211.7
2014-Apr-21 06:34N 53°32' E 003°34'1311.9
2014-Apr-21 05:27N 53°45' E 003°43'1213.0
2014-Apr-21 04:32N 53°52' E 003°60'9112.2
2014-Apr-20 21:03N 55°11' E 005°17'612.4
2014-Apr-20 20:33N 55°16' E 005°22'1212.5
2014-Apr-20 19:33N 55°28' E 005°31'1412.5
2014-Apr-20 18:24N 55°41' E 005°42'19511.4
2014-Apr-20 01:21N 57°52' E 010°04'1012.1
2014-Apr-20 00:34N 57°52' E 010°22'1212.0
2014-Apr-19 23:34N 57°49' E 010°44'1010.1
2014-Apr-19 22:33N 57°39' E 010°41'1 1.1
2014-Apr-19 21:20N 57°38' E 010°39'0 0.0
2014-Apr-19 20:32N 57°38' E 010°39'0 0.0
2014-Apr-19 19:32N 57°38' E 010°39'0 0.0
2014-Apr-19 18:23N 57°38' E 010°39'0 0.0
2014-Apr-19 17:29N 57°38' E 010°39'0 0.0
2014-Apr-19 16:32N 57°38' E 010°39'0 0.0
2014-Apr-19 15:32N 57°38' E 010°39'0 0.0
2014-Apr-19 14:23N 57°38' E 010°39'0 0.0
2014-Apr-19 13:32N 57°38' E 010°39'0 0.0
2014-Apr-19 12:23N 57°38' E 010°39'0 0.0
2014-Apr-19 11:32N 57°38' E 010°39'0 0.0
2014-Apr-19 10:32N 57°38' E 010°39'0 0.0
2014-Apr-19 08:05N 57°38' E 010°39'0 0.0
2014-Apr-19 07:32N 57°38' E 010°39'0 0.0
2014-Apr-19 06:29N 57°38' E 010°39'0 0.0
2014-Apr-19 05:32N 57°38' E 010°39'0 0.0
2014-Apr-19 04:20N 57°38' E 010°39'0 0.2
2014-Apr-19 03:32N 57°38' E 010°39'6 6.3
2014-Apr-19 02:33N 57°37' E 010°50'1313.2
2014-Apr-19 01:33N 57°33' E 011°14'1312.5
2014-Apr-19 00:33N 57°23' E 011°29'1312.7
2014-Apr-18 23:33N 57°11' E 011°36'1211.6
2014-Apr-18 22:33N 57°01' E 011°46'1212.3
2014-Apr-18 21:33N 56°49' E 011°53'1010.4
2014-Apr-18 20:33N 56°40' E 011°44'3711.1
2014-Apr-18 17:15N 56°10' E 011°06'  
2014-Apr-16 06:30N 55°57' E 010°59'1313.2
2014-Apr-16 05:33N 56°07' E 011°10'1313.0
2014-Apr-16 04:34N 56°18' E 011°24'2613.0
2014-Apr-16 02:33N 56°41' E 011°47'1212.1
2014-Apr-16 01:33N 56°53' E 011°47'1313.4
2014-Apr-16 00:33N 57°06' E 011°39'1313.3
2014-Apr-15 23:33N 57°18' E 011°31'1313.2
2014-Apr-15 22:33N 57°30' E 011°19'1313.2
2014-Apr-15 21:33N 57°39' E 011°02'1212.0
2014-Apr-15 20:34N 57°47' E 010°44'1111.4
2014-Apr-15 19:33N 57°47' E 010°23'1312.9
2014-Apr-15 18:33N 57°47' E 009°59'45310.3
2014-Apr-13 22:33N 51°38' E 002°24'1313.0
2014-Apr-13 21:32N 51°28' E 002°11'1110.9
2014-Apr-13 20:32N 51°17' E 002°07'1010.4
2014-Apr-13 19:33N 51°10' E 001°55'1010.0
2014-Apr-13 18:34N 51°05' E 001°42'1310.2
2014-Apr-13 17:19N 50°55' E 001°28'810.7
2014-Apr-13 16:33N 50°47' E 001°24'1211.1
2014-Apr-13 15:26N 50°37' E 001°13'1211.5
2014-Apr-13 14:23N 50°29' E 000°58'1011.7
2014-Apr-13 13:32N 50°26' E 000°44'1211.8
2014-Apr-13 12:33N 50°23' E 000°26'10414.1
2014-Apr-13 05:13N 49°58' W 002°10'  

Dump ship's entire track history

sailing weather and tide predictions

Seavoyager — 9HUM8 — position and weather